DW8248 Weather Reports


time (UTC)temp
C
wind
direction
speed
KPH
gust
KPH
rain 1hr
cm
rain 24hr
cm
rain mn
cm
humidity
%
barometer
mb
20171125054850 17 309 8.0 14.5 0.00 0.00 0.00 90 1013.6
20171125053853 17 348 9.7 17.7 0.00 0.00 0.00 90 1013.4
20171125052822 17 344 12.9 17.7 0.00 0.00 0.00 91 1013.4
20171125051748 17 297 9.7 14.5 0.00 0.00 0.00 91 1013.4
20171125050737 17 300 11.3 17.7 0.00 0.00 0.00 91 1013.6
20171125045721 17 295 14.5 19.3 0.00 0.00 0.00 91 1013.7
20171125044744 17 316 14.5 20.9 0.00 0.00 0.00 91 1013.6
20171125043731 17 316 17.7 22.5 0.00 0.00 0.00 91 1013.6
20171125042743 17 316 17.7 24.1 0.00 0.00 0.00 92 1013.7
20171125041737 17 309 19.3 29.0 0.00 0.00 0.00 91 1013.7
20171125040705 17 309 20.9 29.0 0.00 0.00 0.00 91 1013.6
20171125035649 17 320 22.5 27.4 0.00 0.00 0.00 91 1013.5
20171125034708 17 322 20.9 25.7 0.00 0.00 0.00 91 1013.5
20171125033726 17 306 19.3 25.7 0.00 0.00 0.00 91 1013.6
20171125032733 17 312 19.3 24.1 0.00 0.00 0.00 91 1013.6
20171125031730 17 311 17.7 22.5 0.00 0.00 0.00 91 1013.6
20171125030742 17 310 19.3 24.1 0.00 0.00 0.00 91 1013.6
20171125025803 17 311 19.3 24.1 0.00 0.00 0.00 91 1013.6
20171125024742 17 292 16.1 20.9 0.00 0.00 0.00 91 1013.7
20171125023804 17 301 16.1 20.9 0.00 0.00 0.00 91 1013.6
20171125021617 17 317 16.1 19.3 0.00 0.00 0.00 91 1013.5
20171125020616 18 298 14.5 19.3 0.00 0.00 0.00 90 1013.4
20171125015636 18 324 11.3 17.7 0.00 0.00 0.00 90 1013.4
20171125014635 18 316 11.3 20.9 0.00 0.00 0.00 90 1013.3
20171125013604 18 315 14.5 20.9 0.00 0.00 0.00 90 1013.3
20171125012546 18 345 14.5 20.9 0.00 0.00 0.00 90 1013.3
20171125011517 18 0 8.0 14.5 0.00 0.00 0.00 90 1013.3
20171125005356 18 316 12.9 19.3 0.00 0.00 0.00 90 1013.3
20171125004353 18 317 12.9 19.3 0.00 0.00 0.00 90 1013.2
20171125003356 18 322 14.5 17.7 0.00 0.00 0.00 90 1013.1
20171125002326 18 317 14.5 17.7 0.00 0.00 0.00 90 1013.0
20171125001252 18 321 12.9 17.7 0.00 0.00 0.00 90 1012.7
20171125000258 18 302 14.5 19.3 0.00 0.00 0.00 90 1012.7
20171124235238 18 297 14.5 19.3 0.00 0.00 0.00 91 1012.5
20171124233146 18 288 12.9 17.7 0.00 0.00 0.00 91 1012.2
20171124231029 18 292 11.3 14.5 0.00 0.00 0.00 90 1012.0
20171124230042 18 288 11.3 14.5 0.00 0.00 0.00 90 1011.8
20171124223847 18 289 9.7 12.9 0.00 0.00 0.00 90 1011.5
20171124222832 18 303 9.7 14.5 0.00 0.00 0.00 89 1011.4
20171124221806 18 333 12.9 17.7 0.00 0.00 0.00 90 1011.2
20171124220809 18 310 14.5 22.5 0.00 0.00 0.00 90 1011.1
20171124215815 18 324 17.7 22.5 0.00 0.00 0.00 89 1011.1
20171124214810 19 323 12.9 17.7 0.00 0.00 0.00 89 1011.0
20171124213751 18 325 14.5 19.3 0.00 0.00 0.00 89 1010.9
20171124212808 18 311 16.1 22.5 0.00 0.00 0.00 88 1010.8
20171124211812 19 340 16.1 22.5 0.00 0.00 0.00 88 1010.7
20171124205645 19 328 11.3 20.9 0.00 0.00 0.00 87 1010.5
20171124204610 19 337 14.5 20.9 0.00 0.03 0.00 87 1010.3
20171124203604 19 318 12.9 19.3 0.00 0.03 0.00 87 1010.3
20171124202537 19 316 12.9 17.7 0.00 0.03 0.00 88 1010.3
20171124201531 19 288 12.9 16.1 0.00 0.03 0.00 89 1010.3
20171124200554 19 297 12.9 16.1 0.00 0.03 0.00 90 1010.4
20171124195518 18 274 11.3 16.1 0.00 0.03 0.00 90 1010.2
20171124194525 18 300 14.5 19.3 0.00 0.03 0.00 90 1010.2
20171124193512 19 292 19.3 24.1 0.00 0.03 0.00 90 1010.2
20171124191434 19 296 16.1 19.3 0.00 0.03 0.00 88 1010.1
20171124190449 19 289 14.5 19.3 0.00 0.03 0.00 89 1010.1
20171124185446 18 304 16.1 20.9 0.00 0.03 0.00 89 1010.2
20171124184429 18 317 17.7 22.5 0.00 0.03 0.00 89 1010.4
20171124183439 18 302 14.5 24.1 0.00 0.03 0.00 89 1010.3
20171124182446 18 326 14.5 24.1 0.00 0.03 0.00 91 1010.3
20171124181449 18 281 9.7 14.5 0.00 0.03 0.00 93 1010.3
20171124175257 18 270 12.9 16.1 0.00 0.03 0.00 93 1010.4
20171124174303 17 297 17.7 22.5 0.00 0.03 0.00 92 1010.6
20171124173309 18 294 19.3 22.5 0.00 0.03 0.00 91 1010.6
20171124171158 18 302 17.7 22.5 0.00 0.03 0.00 91 1010.7
20171124170140 18 296 19.3 24.1 0.00 0.03 0.00 91 1010.9
20171124165136 18 289 19.3 24.1 0.00 0.03 0.00 92 1010.8
20171124164159 18 283 20.9 24.1 0.00 0.03 0.00 92 1010.7
20171124163158 18 290 20.9 25.7 0.00 0.03 0.00 92 1010.7
20171124162149 18 298 22.5 29.0 0.00 0.03 0.00 92 1010.6
20171124161138 18 294 22.5 29.0 0.00 0.03 0.00 93 1010.5
20171124160123 18 291 20.9 27.4 0.00 0.03 0.00 93 1010.5
20171124155057 18 294 19.3 24.1 0.00 0.03 0.00 93 1010.5
20171124154031 18 305 19.3 24.1 0.00 0.03 0.00 94 1010.4
20171124153041 18 297 17.7 20.9 0.00 0.03 0.00 94 1010.4
20171124152046 18 294 17.7 20.9 0.00 0.03 0.00 95 1010.4
20171124151020 18 288 17.7 22.5 0.00 0.03 0.00 95 1010.3
20171124144901 18 295 17.7 22.5 0.00 0.03 0.00 95 1010.3
20171124143832 18 292 17.7 22.5 0.00 0.03 0.00 95 1010.3
20171124142827 18 283 17.7 22.5 0.00 0.03 0.00 95 1010.3
20171124141807 18 297 19.3 20.9 0.00 0.03 0.00 96 1010.3
20171124140751 19 287 16.1 20.9 0.00 0.03 0.00 95 1010.1
20171124135721 19 281 17.7 22.5 0.00 0.03 0.00 95 1010.0
20171124134715 19 282 17.7 22.5 0.00 0.03 0.00 95 1010.0
20171124133653 19 286 17.7 22.5 0.00 0.03 0.00 96 1009.9
20171124132624 19 292 12.9 20.9 0.00 0.03 0.00 95 1009.7
20171124131636 20 282 12.9 19.3 0.00 0.03 0.00 95 1009.5
20171124130615 20 288 11.3 14.5 0.00 0.03 0.00 95 1009.5
20171124125541 20 296 9.7 14.5 0.00 0.03 0.00 95 1009.4
20171124124601 20 290 8.0 12.9 0.00 0.03 0.00 95 1009.2
20171124123607 20 286 9.7 16.1 0.00 0.03 0.00 95 1009.0
20171124122542 20 302 11.3 16.1 0.00 0.03 0.00 94 1008.7
20171124121551 20 296 8.0 12.9 0.00 0.03 0.00 94 1008.6
20171124120559 20 291 9.7 12.9 0.00 0.03 0.00 95 1008.6
20171124115608 20 286 11.3 14.5 0.00 0.03 0.00 95 1008.5
20171124114619 20 281 11.3 14.5 0.00 0.03 0.00 95 1008.5
20171124113627 20 293 11.3 17.7 0.00 0.03 0.00 95 1008.3
20171124112622 20 298 12.9 17.7 0.00 0.03 0.00 95 1008.3
20171124111559 20 290 9.7 12.9 0.00 0.03 0.00 96 1008.1
20171124110556 20 274 8.0 11.3 0.00 0.03 0.00 96 1008.1
20171124105607 20 252 8.0 11.3 0.00 0.03 0.00 96 1007.9
20171124104547 20 255 8.0 14.5 0.00 0.03 0.00 96 1007.8
20171124103533 20 258 9.7 14.5 0.00 0.03 0.00 96 1007.7
20171124102500 20 263 11.3 12.9 0.00 0.03 0.00 96 1007.5
20171124100325 20 278 9.7 12.9 0.00 0.03 0.00 95 1007.2
20171124095325 20 278 8.0 12.9 0.00 0.03 0.00 95 1007.2
20171124094249 20 275 9.7 12.9 0.00 0.03 0.00 95 1007.2
20171124093309 20 278 8.0 12.9 0.00 0.03 0.00 95 1007.6
20171124092238 20 275 9.7 14.5 0.00 0.03 0.00 95 1007.5
20171124091234 20 274 11.3 16.1 0.00 0.03 0.00 95 1007.5
20171124090226 20 261 9.7 16.1 0.00 0.03 0.00 94 1007.6
20171124085225 20 277 6.4 11.3 0.00 0.03 0.00 94 1007.5
20171124084247 20 240 6.4 12.9 0.00 0.03 0.00 94 1007.5
20171124083214 20 248 6.4 12.9 0.00 0.03 0.00 94 1007.5
20171124082206 20 242 8.0 12.9 0.00 0.03 0.00 94 1007.5
20171124081156 20 227 9.7 12.9 0.00 0.03 0.00 94 1007.6
20171124080157 20 209 8.0 11.3 0.00 0.03 0.00 94 1007.5
20171124074002 20 218 6.4 16.1 0.00 0.03 0.00 93 1007.4
20171124072952 20 236 8.0 16.1 0.00 0.03 0.00 93 1007.5
20171124071954 20 234 6.4 11.3 0.00 0.03 0.00 93 1007.7
20171124071007 20 245 8.0 11.3 0.00 0.03 0.00 93 1008.1
20171124070018 20 229 8.0 11.3 0.00 0.03 0.00 92 1007.9
20171124065036 20 244 4.8 8.0 0.00 0.03 0.00 92 1008.0
20171124064029 20 255 6.4 9.7 0.00 0.03 0.00 92 1008.0
20171124063002 21 250 6.4 9.7 0.00 0.03 0.00 91 1007.8
20171124061931 21 189 9.7 12.9 0.00 0.03 0.00 91 1007.8
20171124060923 21 194 8.0 12.9 0.00 0.03 0.00 91 1007.9
20171124055916 21 173 8.0 12.9 0.00 0.03 0.00 91 1007.7